User: anonymous   Login
Location: Unspecified
(0.0000°N, 0.0000°E)
Time: 23:20:07
(UTC+00:00)
Language:

ANTELSAT - Orbit

View from above orbital plane
View from above orbital plane
View from above satellite
View from above satellite

Ground track
Ground track

The orbit data is extracted from the following two-line orbital elements,

1 40034U 14033AA  17141.73566813 +.00000329 +00000-0 +56766-4 0  9993
2 40034 097.8629 026.4821 0059732 019.3762 340.9699 14.73679757156492
Epoch (UTC): 21 May 2017 17:39:21
Eccentricity: 0.0059732
inclination: 97.8629°
perigee height: 607 km
apogee height: 691 km
right ascension of ascending node: 26.4821°
argument of perigee: 19.3762°
revolutions per day: 14.73679757
mean anomaly at epoch: 340.9699°
orbit number at epoch: 15649

The dashed part of the orbit path shows where the satellite is in the earth's shadow,  

DLR